Regional Weather Roundup
Issued by NWS

Home | Current Version | Previous Version | Text Only | Print | Product List | Glossary Off
Versions: 1 2 3 4 5 6 7 8 9 10 11 12 13 14 15 16 17 18 19 20 21 22 23 24 25 26 27 28 29 30 31 32 33 34 35 36 37 38 39 40 41 42 43 44 45 46 47 48 49 50

000
ASUS43 KMKX 301800
RWRWI

WISCONSIN REGIONAL WEATHER ROUNDUP
NATIONAL WEATHER SERVICE MILWAUKEE/SULLIVAN WI
100 PM CDT SUN AUG 30 2015

NOTE: "FAIR" INDICATES FEW OR NO CLOUDS BELOW 12,000 FEET WITH NO
SIGNIFICANT WEATHER AND/OR OBSTRUCTIONS TO VISIBILITY.

WIZ001-002-006>008-014>016-023>028-301900-
NORTHWEST WISCONSIN

CITY           SKY/WX    TMP DP  RH WIND       PRES   REMARKS
SUPERIOR ARPT  SUNNY     77  66  68 SW12      29.91S
ASHLAND        SUNNY     80  65  59 SW10G17   29.92F HX  82
6HR MIN TEMP:  65; 6HR MAX TEMP:  80;

HAYWARD        SUNNY     74  61  63 S14       29.98F
6HR MIN TEMP:  63; 6HR MAX TEMP:  74;

SIREN          SUNNY     75  62  63 S7        29.96F
CUMBERLAND     MOSUNNY   70  63  78 S10       30.00F
RICE LAKE      PTSUNNY   71  62  75 S10       30.02F
CHETEK         CLOUDY   N/A N/A N/A S8        30.02F
LADYSMITH      MOSUNNY   73  64  72 S10       30.03F
6HR MIN TEMP:  59; 6HR MAX TEMP:  74;

EAU CLAIRE     NOT AVBL
MENOMONIE      PTSUNNY   72  63  74 S10       30.03F
6HR MIN TEMP:  56; 6HR MAX TEMP:  72;

NEW RICHMOND   SUNNY     74  64  70 S8        30.00F
OSCEOLA        SUNNY     74  63  69 S12       30.01F
$$

WIZ003>005-009-010-017-018-301900-
NORTH CENTRAL WISCONSIN

CITY           SKY/WX    TMP DP  RH WIND       PRES   REMARKS
MANITOWISH WTR SUNNY     73  63  71 S12       30.00F
ARBOR VITAE    SUNNY     74  65  73 S10       30.02F
WOODRUFF       SUNNY     74  65  73 S10       30.02F
RHINELANDER    MOSUNNY   71  61  70 VRB7      30.04F
6HR MIN TEMP:  58; 6HR MAX TEMP:  71;

EAGLE RIVER    SUNNY     72  59  63 SW10      30.02F
LAND O LAKES   SUNNY     74  59  59 SW10      30.02F
PHILLIPS       SUNNY     73  64  74 S12       30.02F
6HR MIN TEMP:  57; 6HR MAX TEMP:  73;

TOMAHAWK       MOSUNNY   71  62  74 S3        30.05F
MEDFORD        PTSUNNY   69  64  82 SW7       30.05F
MERRILL        PTSUNNY   70  63  77 SW7       30.06F
$$

WIZ029-030-035-036-043>047-301900-
CENTRAL WISCONSIN

CITY           SKY/WX    TMP DP  RH WIND       PRES   REMARKS
WAUSAU         MOSUNNY   72  62  71 SW8       30.03F
6HR MIN TEMP:  52; 6HR MAX TEMP:  73;

MOSINEE        MOSUNNY   72  64  78 S9        30.07F
MARSHFIELD     SUNNY     74  61  63 S9        30.05F
6HR MIN TEMP:  55; 6HR MAX TEMP:  74;

STEVENS POINT  MOSUNNY   70  61  71 S9        30.06F
WAUPACA        PTSUNNY   73  63  71 SW8       30.07F
WAUTOMA        NOT AVBL
WISC RAPIDS    MOSUNNY   73  61  65 S7        30.07F
6HR MIN TEMP:  55; 6HR MAX TEMP:  73;

CAMP DOUGLAS   NOT AVBL
$$

WIZ011>013-019>022-031-037>040-048>050-301900-
NORTHEAST WISCONSIN

CITY           SKY/WX    TMP DP  RH WIND       PRES   REMARKS
ANTIGO         MOSUNNY   70  61  73 SW9       30.06F
SHAWANO        PTSUNNY   73  62  68 SW8       30.06S
OCONTO         PTSUNNY   72  64  76 SW7       30.04F
STURGEON BAY   MOSUNNY   72  63  73 SW9       30.06F
6HR MIN TEMP:  59; 6HR MAX TEMP:  72;

GREEN BAY      PTSUNNY   72  63  73 SW8       30.05F
6HR MIN TEMP:  56; 6HR MAX TEMP:  72;

MANITOWOC      NOT AVBL
APPLETON       CLOUDY    70  61  73 SW7       30.05F
CLINTONVILLE   CLOUDY    72  61  68 SW10      30.06S
OSHKOSH        CLOUDY    70  61  73 SW7       30.07S
6HR MIN TEMP:  55; 6HR MAX TEMP:  70;

$$

WIZ032>034-041-042-053>061-301900-
SOUTHWEST WISCONSIN

CITY           SKY/WX    TMP DP  RH WIND       PRES   REMARKS
LA CROSSE      CLOUDY    72  63  73 S8        30.05F
6HR MIN TEMP:  59; 6HR MAX TEMP:  72;

SPARTA         PTSUNNY   72  60  64 S5        30.07F
VIROQUA          N/A     69  63  81 SW9       30.08F
BOSCOBEL       CLOUDY    73  62  68 VRB6      30.07F
6HR MIN TEMP:  60; 6HR MAX TEMP:  73;

PRAIRIE DU CHI CLOUDY    70  60  70 SE5       30.07F
PLATTEVILLE    PTSUNNY   72  65  79 S3        30.09F
$$

WIZ056-057-062-063-064-067-068-301900-
SOUTH CENTRAL WISCONSIN

CITY           SKY/WX    TMP DP  RH WIND       PRES   REMARKS
REEDSBURG      MOSUNNY   71  63  74 S7        30.08R
BARABOO/DELLS  CLOUDY    72  60  65 S7        30.08S
LONE ROCK      NOT AVBL
MINERAL POINT  PTSUNNY   72  63  73 S3        30.09F
MADISON        PTSUNNY   70  61  73 VRB6      30.07F
6HR MIN TEMP:  61; 6HR MAX TEMP:  71;

MIDDLETON      MOSUNNY   73  60  63 SW7       30.09S
WATERTOWN      CLOUDY    69  65  87 SW3       30.08F
MONROE         CLOUDY    70  61  73 SW3       30.09F
JANESVILLE     CLOUDY    72  61  68 CALM      30.08F
$$

WIZ051-052-058>065-066-070>072-301900-
SOUTHEAST WISCONSIN

CITY           SKY/WX    TMP DP  RH WIND       PRES   REMARKS
MILWAUKEE      CLOUDY    69  62  78 E6        30.08S
6HR MIN TEMP:  63; 6HR MAX TEMP:  70;

WAUKESHA       CLOUDY    66  61  82 CALM      30.10F
MILWAUKEE/TIMM PTSUNNY   72  59  64 W8        30.09S
RACINE         CLOUDY    70  62  76 N6        30.09F
6HR MIN TEMP:  63; 6HR MAX TEMP:  70;

BURLINGTON     CLOUDY    69  62  76 CALM      30.09S
KENOSHA        CLOUDY    70  63  78 CALM      30.08F
6HR MIN TEMP:  63; 6HR MAX TEMP:  70;

FOND DU LAC    CLOUDY    71  62  73 SW7       30.07F
6HR MIN TEMP:  62; 6HR MAX TEMP:  71;

SHEBOYGAN      CLOUDY    70  62  76 SW8       30.07F
6HR MIN TEMP:  56; 6HR MAX TEMP:  70;

WEST BEND      CLOUDY    70  59  68 W6        30.08S
JUNEAU         CLOUDY    69  60  75 S7        30.09F
$$

LSZ147-162-301900-
LAKE SUPERIOR

STATION/POSITION TIME  TEMP    WIND        PRES    WAVE
                       AIR SEA DIR/SP/G            HT/PER
                 (UTC) (F)     (DEG/KT/KT) (MB)    (FT/S)
W MID LAKE BUOY  1650   60 54  220/ 12/ 14 1012.8F   1/ 3
DEVILS ISLAND    1700   63     220/  6/  9 1012.7F
PORT WING        1700   75     210/  9/ 15 1013.2
SAXON HARBOR     1700   77     200/  6/ 12 1013.2F
$$

LMZ867-665-643>646-301900-
LAKE MICHIGAN

STATION/POSITION TIME  TEMP    WIND        PRES    WAVE
                       AIR SEA DIR/SP/G            HT/PER
                 (UTC) (F)     (DEG/KT/KT) (MB)    (FT/S)
CHAMBERS ISLAND  1700   67     170/  6/ 13 1017.3F
S GREEN BAY BUOY 1730   66 64  210/  8/ 10 1018.9F
N MID LAKE BUOY  1650   64 65  200/ 12/ 14 1017.3F   1/ 3
NORTHPORT PIER   1700   67     150/  7/ 12 1016.9F
SISTER BAY       1619   72     270/  8/ 10   N/A
ALGOMA LAKESHORE 1614             CALM       N/A
SHEBOYGAN LAKESH 1700   55     160/  2/  2 1018.9F
PORT WASHINGTON  1700   62     130/  2/  4 1019.3F
ATWATER BUOY     1700   56 51   CALM  /  2 1020.2F
MILWAUKEE LAKESH 1700   57      80/  7/  7   N/A
S MID LAKE BUOY  1650   67 68  340/ 10/ 10 1017.9F   1
KENOSHA   LAKESH 1700   60      30/  4/  5 1018.6S
$$

TC  - TEMPERATURE IN CELSIUS
VSB - VISIBILITY IN STATUTE MILES
WCI - WIND CHILL INDEX
HX  - HEAT INDEX



USA.gov is the U.S. government's official web portal to all federal, state and local government web resources and services.